EPGD Weather Reports


time (UTC)temp
F
wind
direction
speed
knots
gust
knots
rain 1hr
in
rain 24hr
in
rain mn
in
humidity
%
barometer
mb
20260507020504 41 10 8.7 0.0 0.00 0.00 0.00 93 1010.0
20260507013503 41 10 8.7 0.0 0.00 0.00 0.00 100 1010.0
20260507010504 41 20 7.8 0.0 0.00 0.00 0.00 100 1010.0
20260507003504 41 360 10.4 0.0 0.00 0.00 0.00 100 1009.0
20260507000504 41 10 11.3 0.0 0.00 0.00 0.00 100 1009.0
20260506233503 41 10 8.7 0.0 0.00 0.00 0.00 100 1009.0
20260506230504 41 10 7.8 0.0 0.00 0.00 0.00 100 1009.0
20260506223503 41 30 8.7 0.0 0.00 0.00 0.00 100 1009.0
20260506220504 41 30 8.7 0.0 0.00 0.00 0.00 100 1009.0
20260506213504 41 30 11.3 0.0 0.00 0.00 0.00 100 1009.0
20260506210504 41 40 13.0 0.0 0.00 0.00 0.00 100 1009.0
20260506203503 41 40 14.8 0.0 0.00 0.00 0.00 100 1008.0
20260506200504 41 40 13.0 0.0 0.00 0.00 0.00 100 1008.0
20260506193504 41 30 11.3 0.0 0.00 0.00 0.00 100 1008.0
20260506190504 41 40 14.8 0.0 0.00 0.00 0.00 100 1008.0
20260506183504 41 40 13.0 0.0 0.00 0.00 0.00 100 1008.0
20260506180504 41 40 13.0 0.0 0.00 0.00 0.00 100 1007.0
20260506173503 41 40 14.8 0.0 0.00 0.00 0.00 100 1007.0
20260506170504 41 40 15.6 0.0 0.00 0.00 0.00 100 1007.0
20260506163504 41 40 14.8 0.0 0.00 0.00 0.00 100 1007.0
20260506160503 41 40 15.6 0.0 0.00 0.00 0.00 100 1007.0
20260506153504 41 40 17.4 0.0 0.00 0.00 0.00 100 1007.0
20260506150504 41 50 13.9 0.0 0.00 0.00 0.00 100 1007.0
20260506143504 41 50 13.0 0.0 0.00 0.00 0.00 100 1007.0
20260506140504 41 50 17.4 0.0 0.00 0.00 0.00 100 1007.0
20260506133503 42 50 15.6 0.0 0.00 0.00 0.00 93 1007.0
20260506130504 42 50 17.4 0.0 0.00 0.00 0.00 86 1007.0
20260506123503 42 50 18.2 0.0 0.00 0.00 0.00 86 1007.0
20260506120504 42 40 18.2 0.0 0.00 0.00 0.00 86 1007.0
20260506113503 42 40 15.6 0.0 0.00 0.00 0.00 86 1007.0
20260506110504 42 40 17.4 0.0 0.00 0.00 0.00 86 1007.0
20260506103504 42 40 12.2 0.0 0.00 0.00 0.00 93 1007.0
20260506100504 42 50 12.2 0.0 0.00 0.00 0.00 93 1007.0
20260506093503 44 50 14.8 0.0 0.00 0.00 0.00 87 1007.0
20260506090504 44 60 14.8 0.0 0.00 0.00 0.00 87 1007.0
20260506083503 44 60 13.9 0.0 0.00 0.00 0.00 87 1007.0
20260506080504 44 50 13.0 0.0 0.00 0.00 0.00 100 1007.0
20260506073503 44 50 12.2 0.0 0.00 0.00 0.00 100 1007.0
20260506070504 44 50 10.4 0.0 0.00 0.00 0.00 100 1008.0
20260506060504 44 50 10.4 0.0 0.00 0.00 0.00 100 1008.0
20260506050504 44 50 10.4 0.0 0.00 0.00 0.00 93 1008.0
20260506043503 42 50 10.4 0.0 0.00 0.00 0.00 100 1009.0
20260506040504 42 50 7.8 0.0 0.00 0.00 0.00 100 1009.0
20260506033503 42 40 7.0 0.0 0.00 0.00 0.00 100 1009.0
20260506030504 42 30 5.2 0.0 0.00 0.00 0.00 100 1009.0
20260506023504 42 40 4.3 0.0 0.00 0.00 0.00 100 1009.0